Find Starlink 32106

NORAD ID: 59690 Int'l Des: 2024-086 Owner: SPXS Country: US Constellation: starlink operational
LEOCIRCULAR

Live Position

Loading 3D Globe...

About Starlink 32106

Description loading...

Upcoming Passes

Passes for default location (London). Set your location on the main map for personalized predictions.

Altitude History

Loading altitude history...

Two-Line Element Set

1 59690U 24086J 26126.24947073 .00001529 00000-0 65074-4 0 9995
2 59690 43.0032 87.1766 0000864 268.3311 91.7442 15.27581897113005
Epoch: May 6, 2026 • Age: 16 hours

Current Status

Altitude 482.3 km
Velocity 7.63 km/s
Sub-Earth Point 14.69°N, 91.68°W
Launch Date May 8, 2024
Age 1.9 years
Type internet

Technical Details

Classification Payload
Mass 730.00 kg
Dry Mass 700.00 kg
Total Mass 730.00 kg
Length 0.30 m
Diameter 4.10 m
Span 29.00 m
Shape Box + pan
Manufacturer SPXS
Bus Type Starlink V2M
Phase Status In Orbit
Owner/State SPXS/US

Most Searched